Creek Data

    Home     View Charts     View Raw Data     Messages

ID Distance Battery Voltage Battery Current Internal Temp Internal Humidity External Temp Solar Input rssi snr Time Stamp Record
67570 14.2 3.78 6 91 48 77 5.1 -71 8 02/28/2026 01:30 PM 50416
67569 14.1 3.99 0 88 48 80 5.1 -70 8 02/28/2026 01:00 PM 50414
67568 14.1 3.78 6 87 48 79 5.1 -71 8 02/28/2026 12:45 PM 50413
67567 14.1 3.78 7 85 48 75 5.1 -71 8 02/28/2026 12:30 PM 50412
67566 14.1 3.78 0 82 50 77 5.1 -70 8 02/28/2026 12:15 PM 50411
67565 14.0 3.78 7 80 50 75 5.1 -70 7 02/28/2026 12:00 PM 50410
67564 14.0 3.79 7 79 50 75 5.1 -70 7 02/28/2026 11:45 AM 50409
67563 14.0 3.87 7 80 49 74 5.1 -70 8 02/28/2026 11:30 AM 50408
67562 14.1 3.78 0 81 47 76 5.1 -70 8 02/28/2026 11:15 AM 50407
67561 14.1 3.78 7 79 48 76 5.1 -70 8 02/28/2026 11:00 AM 50406
67560 14.1 3.78 0 78 48 75 5.1 -70 8 02/28/2026 10:45 AM 50405
67559 14.1 3.78 7 77 47 74 5.1 -70 8 02/28/2026 10:30 AM 50404
67558 14.1 3.80 7 75 47 74 5.1 -70 8 02/28/2026 10:15 AM 50403
67557 14.1 3.77 7 72 46 71 5.1 -70 8 02/28/2026 09:45 AM 50401
67556 14.1 3.78 7 70 46 71 5.1 -70 7 02/28/2026 09:30 AM 50400
67555 14.1 3.78 7 68 46 68 5.1 -70 8 02/28/2026 09:15 AM 50399
67554 14.0 3.77 0 65 47 66 5.1 -70 8 02/28/2026 09:00 AM 50398
67553 14.0 3.77 7 62 48 64 5.1 -70 8 02/28/2026 08:45 AM 50397
67552 13.9 4.07 6 60 49 64 5.1 -71 7 02/28/2026 08:30 AM 50396
67551 13.9 4.02 6 58 50 61 5.1 -71 7 02/28/2026 08:15 AM 50395
67550 13.9 3.77 0 56 50 58 5.1 -70 8 02/28/2026 08:00 AM 50394
67549 13.9 3.85 9 55 50 55 4.5 -71 8 02/28/2026 07:45 AM 50393
67548 13.9 3.84 20 54 51 55 4.5 -70 9 02/28/2026 07:30 AM 50392
67547 13.9 3.77 20 53 51 53 4.5 -71 8 02/28/2026 07:15 AM 50391
67546 13.9 3.80 5 53 52 54 4.5 -70 8 02/28/2026 07:00 AM 50390